Retour au catalogue

FENGYUN 1C DEB

ActifSSO
NORAD 30573·DEBRIS·🇨🇳 China

Lancé May 10, 1999 depuis Taiyuan Satellite Launch Center

Loading…

Prochains Passages (prochaines 24 heures)

TLE

FraisSource: Space-Track

Époque: Sep 14, 2026, 15:16 UTC

1 30573U 99025ALP 26257.63669608  .00001822  00000-0  92352-3 0  9996
2 30573  99.2084 309.2728 0087678 217.1977 297.2968 14.15411149   995

Suivez FENGYUN 1C DEB en temps réel avec AllMySat

Download on the App Store